Location: Unspecified
(50.1700°N, 6.8600°E)
Time: 10:24:48
(UTC+00:00)

Cosmos 494 Rocket - Pass Details

Date: 24 January 2019
Orbit: 743 x 770 km, 74.1° (Epoch: 20 February)

Event Time Altitude Azimuth Distance (km) Brightness Sun altitude
Exits shadow 04:54:14 57° 268° (W) 901 3.9 -22.7°
Maximum altitude 04:54:47 60° 298° (WNW) 871 3.9 -22.6°
Drops below altitude 10° 04:59:56 10° 18° (NNE) 2,296 6.6 -21.7°
Sets 05:02:21 0° 23° (NNE) 3,221 7.5 -21.4°
